Regional Weather Roundup
Issued by NWS

Home | Current Version | Previous Version | Text Only | Print | Product List | Glossary On
Versions: 1 2 3 4 5 6 7 8 9 10 11 12 13 14 15 16 17 18 19 20 21 22 23 24 25 26 27
000
ASUS45 KCYS 240410
RWRWY

WYOMING REGIONAL WEATHER ROUNDUP
NATIONAL WEATHER SERVICE CHEYENNE WY
1000 PM MDT MON OCT 23 2017

NOTE:  "FAIR" INDICATES FEW OR NO CLOUDS BELOW 12,000 FEET
WITH NO SIGNIFICANT WEATHER AND/OR OBSTRUCTIONS TO VISIBILITY.

WYZ001-240500-
YELLOWSTONE NATIONAL PARK

CITY           SKY/WX    TMP DP  RH WIND       PRES   REMARKS
LK YELLOWSTONE   N/A     25  20  81 CALM      30.71R
W YELLOWSTONE  NOT AVBL

$$
WYZ002>013-054>058-071-098>099-240500-
NORTHERN WYOMING

CITY           SKY/WX    TMP DP  RH WIND       PRES   REMARKS
JACKSON        FAIR      27  22  81 N6        30.69R WCI  20
CODY           FAIR      33  17  51 S9        30.60S WCI  25
GREYBULL       FAIR      41  18  39 W3        30.56R
WORLAND        FAIR      36  19  50 SW3       30.58R
SHERIDAN       FAIR      40  22  48 W12       30.57S WCI  33
BUFFALO        FAIR      40  18  41 N9        30.56S WCI  34
GILLETTE       FAIR      39  18  42 NW13      30.53R WCI  31
HULETT         FAIR      41  19  42 NW7       30.52R
NEWCASTLE      FAIR      41  18  38 NW10      30.50S

$$
WYZ014>020-022>026-101>103-240500-
CENTRAL WYOMING

CITY           SKY/WX    TMP DP  RH WIND       PRES   REMARKS
BIG PINEY      FAIR      28  16  60 CALM      30.65R
PINEDALE       FAIR      36  19  51 NW24G31   30.61F WCI  24
DUBOIS         FAIR      37  21  52 W28G38    30.62R WCI  25
LANDER         FAIR      37  21  52 S3        30.60R
RIVERTON       FAIR      41  18  39 CALM      30.61R
CASPER         FAIR      30  15  53 CALM      30.60R
DOUGLAS        FAIR      33  19  56 W9        30.57R WCI  25

$$
WYZ021-027>030-104>119-240500-
SOUTHERN WYOMING

CITY           SKY/WX    TMP DP  RH WIND       PRES   REMARKS
EVANSTON       FAIR      42  24  49 CALM      30.68S
KEMMERER       FAIR      34  21  60 NE3       30.69R
FORT BRIDGER   FAIR      40  22  50 W9        30.70R WCI  33
ROCK SPRINGS   FAIR      39  14  36 NW8       30.63R WCI  33
DIXON          FAIR      34  23  64 SE3       30.62R
RAWLINS        FAIR      30  14  51 NW6       30.61R WCI  24
SARATOGA       FAIR      30  18  59 W14       30.61R WCI  20
LARAMIE        FAIR      32  14  47 NW14      30.59R WCI  22
CHEYENNE       FAIR      38  17  42 N12       30.55R WCI  30
TORRINGTON     FAIR      42  16  34 NW12      30.51R
PINE BLUFFS    FAIR      32  21  64 MISG      30.54R

$$




USA.gov is the U.S. government's official web portal to all federal, state and local government web resources and services.